Location: Stoke Bliss
(52.2667°N, 2.5167°W)
Time: 07:10:02
(UTC+00:00)

Envisat - Pass Details

Date: 11 December 2021
Orbit: 764 x 766 km, 98.2° (Epoch: 17 January)

Event Time Altitude Azimuth Distance (km) Brightness Sun altitude
Rises 17:30:09 0° 209° (SSW) 3,224 7.1 -13.2°
Reaches altitude 10° 17:33:06 10° 226° (SW) 2,303 6.6 -13.6°
Maximum altitude 17:36:40 19° 272° (W) 1,761 5.8 -14.1°
Drops below altitude 10° 17:40:17 10° 317° (NW) 2,315 5.8 -14.6°
Sets 17:43:16 0° 335° (NNW) 3,247 6.3 -15.1°
